Wind_Speed
88 85 84 98 122 127 140 150 142 133 124 124 123 120 117 119 122 115 112 109 104 98 95 93 91 95 94 89 81 83 82 79 72 72 76 75 75 73 73 67 62 59 57 57
86 76 86 91 100 114 120 131 138 142 133 128 123 119 121 126 119 119 116 113 109 102 97 95 94 96 97 94 89 83 85 86 81 80 81 79 82 79 77 74 69 68 66 67
76 79 87 84 88 93 98 111 115 124 143 138 129 126 123 126 125 120 116 114 113 105 100 97 94 94 98 94 92 91 91 92 91 86 82 81 84 84 81 81 82 78 74 70
66 74 81 84 77 86 90 90 100 113 125 134 145 136 130 125 122 127 123 118 113 111 110 101 98 96 99 101 99 97 96 94 93 95 88 81 83 87 88 89 86 81 79 77
68 70 74 76 76 95 76 86 95 98 110 121 134 144 138 132 127 121 115 117 116 111 109 106 104 104 106 106 103 101 97 96 98 94 96 93 86 87 92 92 91 88 87 85
61 64 66 71 78 86 73 84 87 88 98 109 114 130 131 142 131 125 119 115 114 113 114 115 114 115 112 112 109 107 102 100 99 96 96 95 98 91 93 95 97 95 93 90
54 59 61 65 72 75 70 76 82 88 92 85 91 111 107 119 138 131 129 123 120 116 120 122 121 121 118 120 118 115 112 107 104 101 100 102 102 98 97 97 97 95 95 93
45 48 53 60 66 68 67 73 75 79 80 76 81 96 85 96 116 139 145 133 131 126 123 124 124 128 127 124 121 117 116 111 107 104 102 106 105 103 101 101 98 96 94 94
38 42 46 53 59 61 64 64 72 74 77 79 84 87 78 88 101 114 129 145 139 136 134 131 129 128 130 129 125 122 120 116 111 107 108 109 109 107 103 106 104 98 97 97
36 39 43 48 51 54 57 64 68 70 73 77 75 76 70 76 87 102 113 127 144 151 140 139 133 131 132 132 128 127 126 119 116 114 113 113 112 112 107 109 110 107 103 99
31 37 38 40 45 47 52 60 64 69 72 70 67 71 72 75 82 90 98 110 124 141 150 145 142 139 136 133 131 132 129 123 115 117 116 118 117 116 113 114 114 110 109 107
27 30 32 36 38 41 46 51 57 64 66 68 70 68 68 72 78 85 92 101 111 122 141 149 148 144 144 142 137 132 130 127 121 119 118 120 121 121 119 117 117 115 113 112
24 25 24 31 33 36 40 44 49 54 60 63 65 63 65 70 78 85 90 95 100 110 125 142 149 149 148 147 144 140 136 130 126 123 122 123 122 124 123 122 121 119 119 118
19 22 23 28 30 33 33 36 40 45 51 57 59 63 64 66 71 78 83 90 94 98 110 125 141 150 151 150 150 147 145 141 133 127 126 125 126 126 126 126 126 125 123 122
17 21 23 25 28 29 27 31 36 42 48 50 57 61 62 62 67 74 81 85 89 93 98 110 125 137 148 151 151 149 147 145 141 136 131 129 128 127 129 129 129 129 127 126
17 19 21 22 25 24 27 31 34 38 42 47 51 55 58 61 65 70 76 81 85 88 93 99 111 125 135 142 148 149 148 146 143 142 138 135 133 129 128 128 129 131 129 127
15 19 20 21 24 24 26 29 33 36 40 45 50 54 57 59 61 65 71 75 79 83 85 88 94 105 117 129 135 142 146 146 145 143 141 140 139 137 134 131 127 126 128 130
13 15 19 22 24 25 27 29 33 36 38 40 44 51 55 59 63 64 66 69 73 76 80 81 82 87 97 111 121 128 133 142 145 146 146 144 141 140 138 136 135 132 128 125
14 16 17 21 23 26 28 29 30 34 36 39 42 46 50 56 60 62 65 66 69 72 75 77 79 78 82 89 98 108 120 127 133 139 143 145 145 143 142 142 141 139 138 138
17 15 18 19 24 27 29 29 31 32 33 36 39 44 51 56 55 58 60 63 66 68 70 73 74 75 78 80 82 87 93 106 114 122 130 136 144 147 147 147 145 145 144 144
16 18 19 20 23 27 28 29 31 32 33 34 36 40 46 49 49 54 57 60 62 62 66 69 71 73 74 76 78 79 84 86 92 100 108 116 125 135 141 148 149 147 148 149
15 16 19 22 24 27 30 31 33 33 33 33 35 38 41 43 43 46 51 55 58 61 64 66 68 71 74 75 77 79 79 82 84 87 93 99 105 111 117 126 133 142 144 148
15 15 16 20 23 24 28 30 31 32 32 32 34 36 38 40 42 42 45 49 52 55 59 62 64 66 67 70 73 76 79 80 81 83 86 89 93 97 100 104 110 114 119 127
15 16 15 15 20 24 26 27 28 30 30 30 31 34 37 39 40 43 45 45 46 49 52 56 63 66 67 68 70 73 76 77 79 81 82 84 87 89 90 93 98 101 104 109
15 16 16 15 16 20 24 26 28 30 33 33 32 32 32 34 37 40 43 45 45 46 48 51 54 57 61 65 67 69 72 73 76 78 81 84 86 88 90 91 92 93 95 98
16 16 17 17 17 18 21 26 30 30 29 29 30 32 31 32 35 39 43 46 48 49 49 51 52 53 56 59 61 64 67 70 73 75 76 79 82 84 86 88 89 90 92 93
Wind_Direction
261 257 254 248 244 245 244 243 244 243 239 238 234 231 234 234 236 236 237 238 237 236 238 240 244 240 242 239 236 239 240 242 244 248 247 243 242 242 242 244 246 249 254 255
261 258 253 247 246 244 242 243 244 240 240 241 239 238 232 233 234 237 237 237 238 239 240 243 244 237 238 239 235 237 240 243 243 245 247 247 243 242 243 246 248 247 247 249
256 255 253 249 248 248 243 242 242 241 238 237 238 239 235 232 232 235 237 237 237 239 240 242 241 235 236 237 238 238 239 240 244 243 243 246 249 246 244 245 244 245 246 251
255 248 250 250 245 247 243 243 242 239 238 237 236 236 237 236 234 234 235 237 239 241 242 240 239 234 236 236 237 238 237 238 239 245 245 245 249 251 247 245 247 249 250 252
256 251 246 248 246 244 240 244 239 238 237 236 236 237 233 234 235 236 234 235 237 240 240 240 238 232 232 233 236 235 238 238 240 241 245 247 247 251 252 248 248 250 251 251
254 252 248 244 244 246 237 238 242 237 236 235 234 238 233 232 234 235 235 235 235 237 238 237 235 232 231 233 235 236 239 241 242 242 243 245 248 247 253 253 252 252 253 253
256 251 249 245 243 244 240 237 239 237 236 239 237 237 236 235 233 233 234 234 233 233 234 234 233 233 233 234 234 236 238 240 241 241 243 244 246 246 249 253 254 254 253 253
257 253 249 246 243 242 238 236 236 238 237 235 236 235 232 232 232 232 232 233 232 232 232 232 233 234 234 235 236 238 240 240 242 244 243 244 246 246 246 250 253 254 254 255
255 249 244 244 243 241 240 237 235 234 234 233 231 234 223 226 230 230 230 230 230 231 231 231 233 235 236 236 236 237 238 239 241 242 245 244 245 245 245 247 250 251 253 254
250 246 242 241 240 238 235 234 233 235 234 233 230 234 230 224 225 228 228 228 231 231 231 232 231 234 237 238 238 239 239 240 241 241 243 243 245 244 245 247 249 250 250 251
251 248 245 242 238 238 233 232 231 232 233 234 234 229 226 226 225 226 228 228 227 230 231 231 233 233 236 238 238 238 239 239 240 240 241 243 245 245 245 247 248 249 252 253
254 250 244 242 240 235 232 232 231 230 230 231 231 228 223 224 227 227 228 229 228 227 230 230 231 233 234 235 235 237 238 238 239 240 243 241 244 245 246 248 248 248 250 253
261 257 247 241 236 232 232 231 229 230 230 229 228 226 222 221 224 226 227 228 229 227 227 229 230 230 232 233 235 236 237 238 237 238 239 242 242 244 246 248 249 249 250 252
260 253 243 239 237 234 230 230 228 227 229 229 227 226 224 220 222 226 228 230 230 229 228 228 230 231 230 231 233 234 236 237 237 237 237 239 243 244 244 246 248 249 250 251
253 250 241 235 236 233 228 228 226 223 222 223 224 223 223 221 220 224 227 230 232 231 231 230 229 230 232 231 232 233 235 236 236 236 236 238 240 243 246 246 247 250 250 252
257 247 241 235 234 229 224 222 222 225 224 221 222 223 224 223 222 223 226 229 232 232 232 232 231 230 232 233 234 234 234 235 236 237 237 237 239 241 244 246 248 249 250 253
272 257 242 230 226 225 221 221 221 220 222 223 221 221 221 224 226 224 225 229 231 233 235 235 236 235 234 235 236 236 236 237 237 238 238 239 240 241 243 245 247 250 252 252
265 260 251 239 227 223 225 223 221 220 220 222 221 222 221 222 225 227 228 229 232 234 237 238 238 238 238 237 237 238 239 239 239 240 240 240 241 242 243 245 247 248 249 252
270 264 256 247 236 226 222 223 226 224 221 222 223 223 225 225 225 227 229 229 232 234 236 238 239 239 240 239 239 239 240 241 241 242 243 243 243 243 243 243 245 248 251 251
283 267 257 248 239 233 226 223 226 229 228 226 224 223 227 229 228 228 230 231 233 235 237 239 240 240 240 241 241 241 241 242 243 244 243 244 245 245 246 245 245 247 249 251
290 272 262 251 239 238 233 229 230 229 230 229 227 225 230 234 233 230 230 231 233 235 236 238 240 242 242 243 244 243 243 243 243 243 244 245 246 246 247 247 249 250 250 250
288 279 268 257 250 242 242 236 235 233 231 233 232 229 231 233 233 233 232 232 234 234 234 236 238 240 241 242 244 246 245 244 244 244 244 244 245 247 247 248 250 251 252 253
288 283 275 262 256 248 245 242 239 238 237 234 231 233 235 233 232 233 233 234 235 234 235 236 237 238 240 241 242 244 246 246 245 244 245 246 247 247 247 249 251 252 253 254
280 278 273 266 251 246 242 239 240 242 241 237 234 233 235 236 237 237 234 236 238 237 235 235 236 237 238 240 243 244 246 246 246 246 246 247 248 249 250 250 251 253 253 254
281 270 263 264 259 250 242 238 237 235 235 237 237 241 241 242 242 240 238 235 234 236 236 236 236 237 239 241 242 244 245 246 247 248 248 249 250 251 251 252 253 253 254 255
287 272 263 248 247 244 243 241 238 238 237 237 238 242 242 239 238 238 237 237 237 236 235 236 237 239 241 242 243 244 246 247 248 249 249 250 252 253 253 254 255 254 255 255
Height
10204 10221 10239 10243 10231 10249 10269 10280 10312 10334 10349 10360 10392 10421 10440 10433 10432 10462 10470 10479 10493 10514 10522 10528 10536 10541 10550 10564 10572 10578 10584 10589 10597 10602 10608 10614 10618 10620 10625 10630 10635 10641 10645 10648
10174 10198 10192 10196 10200 10214 10233 10248 10276 10307 10322 10336 10359 10387 10399 10402 10422 10431 10445 10459 10474 10487 10499 10508 10516 10525 10535 10541 10551 10558 10565 10572 10577 10583 10586 10596 10598 10604 10610 10617 10623 10626 10629 10631
10155 10166 10157 10171 10176 10186 10211 10223 10245 10267 10279 10305 10320 10339 10358 10378 10396 10406 10422 10439 10450 10465 10475 10485 10495 10507 10514 10524 10529 10535 10538 10546 10553 10560 10569 10576 10581 10589 10597 10600 10601 10605 10613 10618
10132 10130 10133 10137 10161 10158 10168 10196 10208 10221 10235 10267 10276 10304 10317 10344 10368 10374 10400 10417 10432 10443 10453 10462 10474 10487 10495 10500 10501 10506 10512 10523 10531 10540 10552 10559 10565 10571 10576 10578 10585 10593 10599 10603
10095 10102 10108 10124 10136 10105 10164 10161 10163 10186 10200 10222 10241 10249 10301 10314 10330 10356 10385 10394 10406 10417 10430 10441 10447 10455 10463 10467 10475 10482 10490 10502 10510 10522 10532 10540 10547 10553 10555 10561 10567 10574 10581 10586
10072 10079 10089 10096 10097 10097 10138 10130 10141 10159 10168 10177 10215 10215 10266 10283 10316 10336 10351 10370 10384 10391 10399 10407 10413 10423 10434 10440 10449 10460 10471 10480 10488 10500 10510 10520 10526 10534 10535 10542 10546 10554 10560 10567
10054 10059 10067 10074 10076 10085 10110 10115 10121 10128 10139 10182 10199 10195 10240 10274 10295 10310 10321 10332 10344 10356 10361 10371 10384 10393 10402 10408 10418 10432 10446 10456 10463 10476 10486 10497 10503 10514 10515 10520 10527 10536 10542 10548
10035 10042 10049 10053 10057 10067 10085 10090 10105 10114 10132 10157 10163 10163 10227 10246 10251 10259 10281 10296 10308 10319 10334 10342 10350 10359 10371 10381 10400 10415 10428 10436 10443 10451 10464 10472 10480 10491 10491 10497 10507 10515 10523 10526
10019 10021 10028 10033 10041 10053 10065 10080 10081 10093 10107 10121 10136 10148 10188 10201 10213 10225 10247 10254 10262 10279 10295 10308 10316 10328 10340 10352 10372 10389 10399 10410 10420 10431 10437 10448 10458 10466 10471 10474 10482 10492 10500 10505
10005 10007 10013 10018 10027 10036 10048 10055 10066 10077 10089 10100 10123 10137 10166 10178 10182 10182 10202 10220 10233 10248 10264 10281 10293 10305 10315 10333 10350 10364 10378 10387 10397 10406 10415 10423 10434 10441 10447 10451 10458 10468 10476 10483
9994 9996 10003 10009 10014 10022 10030 10037 10049 10057 10069 10086 10106 10118 10137 10151 10161 10169 10181 10191 10205 10223 10236 10251 10267 10281 10292 10306 10321 10334 10348 10363 10373 10381 10391 10398 10407 10415 10421 10424 10433 10445 10453 10460
9985 9988 9993 9997 10004 10011 10016 10024 10034 10043 10057 10068 10082 10099 10116 10130 10141 10149 10156 10163 10177 10194 10205 10218 10234 10250 10261 10272 10287 10301 10316 10333 10348 10356 10364 10374 10382 10389 10394 10402 10413 10421 10429 10435
9979 9983 9987 9989 9994 9999 10006 10014 10021 10031 10041 10054 10065 10084 10096 10107 10113 10121 10130 10138 10149 10163 10174 10188 10200 10213 10225 10240 10257 10272 10287 10302 10318 10332 10339 10346 10356 10364 10371 10378 10386 10396 10403 10410
9975 9975 9977 9980 9985 9990 9999 10004 10012 10020 10029 10039 10054 10063 10075 10089 10098 10105 10113 10119 10127 10137 10147 10158 10167 10179 10193 10207 10222 10238 10252 10269 10286 10304 10314 10322 10327 10335 10344 10352 10360 10368 10376 10385
9970 9969 9970 9975 9978 9984 9992 9996 10000 10007 10014 10026 10035 10046 10058 10071 10080 10086 10091 10098 10106 10117 10124 10132 10140 10151 10163 10176 10191 10208 10225 10240 10255 10270 10285 10296 10304 10310 10316 10328 10337 10340 10350 10359
9966 9966 9967 9970 9973 9978 9983 9986 9992 9998 10006 10014 10023 10033 10044 10053 10062 10068 10073 10079 10086 10094 10101 10107 10116 10127 10139 10153 10168 10182 10198 10214 10229 10242 10256 10269 10280 10289 10295 10301 10310 10317 10327 10333
9963 9963 9964 9965 9968 9972 9977 9980 9985 9990 9997 10004 10012 10018 10028 10037 10045 10052 10056 10062 10069 10077 10085 10096 10103 10113 10123 10135 10147 10161 10177 10192 10205 10218 10231 10244 10256 10266 10277 10284 10289 10294 10298 10306
9960 9960 9961 9961 9963 9967 9970 9974 9977 9982 9988 9995 10002 10007 10016 10022 10028 10036 10042 10050 10056 10063 10070 10078 10088 10096 10106 10116 10128 10140 10153 10168 10181 10191 10202 10217 10231 10243 10252 10262 10268 10274 10277 10279
9957 9956 9957 9957 9959 9962 9965 9967 9972 9976 9981 9987 9993 9999 10004 10009 10015 10022 10029 10036 10042 10048 10055 10062 10069 10080 10087 10096 10108 10121 10128 10142 10150 10162 10179 10191 10203 10213 10222 10229 10238 10247 10253 10256
9953 9953 9953 9954 9953 9956 9959 9962 9965 9970 9975 9980 9985 9989 9991 9996 10005 10011 10017 10023 10030 10036 10042 10048 10054 10063 10071 10079 10088 10097 10108 10110 10125 10139 10147 10160 10171 10181 10190 10198 10205 10214 10222 10228
9948 9948 9948 9948 9949 9949 9952 9956 9959 9963 9967 9971 9976 9980 9983 9988 9996 10001 10006 10011 10017 10023 10028 10033 10039 10047 10054 10061 10068 10077 10081 10092 10100 10110 10120 10131 10141 10145 10156 10165 10173 10180 10187 10194
9943 9943 9943 9943 9943 9945 9946 9949 9953 9956 9959 9964 9967 9971 9974 9978 9983 9989 9994 9998 10004 10009 10014 10020 10026 10031 10037 10044 10050 10055 10062 10070 10077 10086 10093 10102 10110 10116 10126 10132 10140 10144 10158 10164
9938 9938 9937 9938 9939 9940 9942 9944 9946 9949 9953 9956 9959 9963 9966 9970 9974 9978 9983 9987 9992 9996 10002 10006 10011 10016 10021 10027 10032 10037 10042 10049 10057 10064 10070 10076 10083 10089 10098 10103 10108 10116 10125 10129
9932 9931 9930 9932 9933 9933 9935 9937 9940 9943 9945 9948 9951 9954 9957 9961 9965 9969 9972 9976 9980 9985 9989 9992 9997 10001 10006 10011 10016 10020 10025 10030 10037 10042 10049 10054 10060 10066 10072 10080 10084 10089 10095 10098
9926 9925 9923 9923 9924 9926 9927 9928 9931 9934 9937 9939 9943 9947 9951 9954 9956 9960 9963 9965 9967 9971 9975 9978 9982 9986 9990 9995 10000 10004 10008 10012 10017 10023 10029 10033 10038 10044 10049 10055 10060 10064 10068 10072
9920 9918 9917 9917 9917 9917 9919 9922 9924 9926 9930 9933 9936 9939 9941 9944 9946 9949 9951 9954 9956 9959 9962 9966 9970 9973 9977 9980 9984 9987 9990 9994 9998 10003 10008 10013 10016 10021 10026 10030 10034 10038 10042 10046